Location: La Pernelle
(49.6188°N, 1.2999°W)
Time: 09:40:15
(UTC+00:00)

USA 238 DEB - Pass Details

Date: 12 June 2021
Orbit: 991 x 1221 km, 63.4° (Epoch: 16 July)

Event Time Altitude Azimuth Distance (km) Brightness Sun altitude
Rises 21:02:03 0° 201° (SSW) 3,710 6.3 -6.6°
Reaches altitude 10° 21:04:39 10° 197° (SSW) 2,779 5.6 -6.9°
Maximum altitude 21:10:57 53° 122° (ESE) 1,253 3.8 -7.5°
Drops below altitude 10° 21:17:36 10° 48° (NE) 2,926 6.1 -8.2°
Sets 21:20:23 0° 44° (NE) 3,921 6.8 -8.5°
